Weather History for La Porte, IN

Change the Weather History Date:

Sunday, January 12, 2014

  Actual Average (KVPZ) Record (KVPZ)
Temperature  
Mean Temperature 34 °F 23 °F  
Max Temperature 39 °F 31 °F 63 °F (2005)
Min Temperature 28 °F 16 °F 7 °F (2003)
Degree Days  
Heating Degree Days 32 42  
Month to date heating degree days 495  
Since 1 July heating degree days 2897  
Cooling Degree Days 0 0  
Month to date cooling degree days 0  
Year to date cooling degree days 0  
Moisture  
Dew Point 27 °F    
Average Humidity 79    
Maximum Humidity 92    
Minimum Humidity 66    
Precipitation  
Precipitation 0.00 in 0.05 in 0.78 in (2005)
Month to date precipitation 0.65  
Year to date precipitation 0.65  
Sea Level Pressure  
Sea Level Pressure 29.80 in    
Wind  
Wind Speed 10 mph (SSW)    
Max Wind Speed 16 mph    
Max Gust Speed 23 mph    
Visibility 9 miles    
Events      
T = Trace of Precipitation, MM = Missing Value Source: NWS Daily Summary

Daily Weather History Graph

Daily Weather History Graph

Search for Another Location

Airport:

Trip Planner

Search our weather history database for the weather conditions in past years. The results will help you decide how hot, cold, wet, or windy it might be!

Date:

Astronomy

Jan. 12, 2014 Rise Set
Actual Time 7:12 AM CST 4:38 PM CST
Civil Twilight 6:41 AM CST 5:09 PM CST
Nautical Twilight 6:07 AM CST 5:43 PM CST
Astronomical Twilight 5:33 AM CST 6:17 PM CST
Moon 2:06 PM CST (1/12) 4:10 AM CST (1/12)
Length of Visible Light 10h 27m
Length of Day
9h 26m
Waxing Gibbous, 90% of the Moon is Illuminated
Jan 12
Waxing Gibbous
Jan 15
Full
Jan 23
Last Quarter
Jan 30
New
Feb 6
First Quarter

Hourly Weather History & Observations

Time (CST) Temp. Windchill Dew Point Humidity Pressure Visibility Wind Dir Wind Speed Gust Speed Precip Events Conditions
12:15 AM 31.5 °F 23.5 °F 25.7 °F 79% 29.77 in 10.0 mi West 9.2 mph - N/A   Overcast
12:35 AM 31.5 °F 24.9 °F 25.3 °F 78% 29.77 in 10.0 mi WNW 6.9 mph - N/A   Overcast
12:55 AM 31.1 °F 25.4 °F 26.1 °F 82% 29.78 in 10.0 mi WNW 5.8 mph - N/A   Overcast
1:15 AM 31.1 °F 23.1 °F 26.1 °F 82% 29.79 in 10.0 mi West 9.2 mph 17.3 mph N/A   Overcast
1:35 AM 31.1 °F 25.4 °F 26.4 °F 83% 29.80 in 10.0 mi WNW 5.8 mph - N/A   Overcast
1:55 AM 30.7 °F 24.1 °F 26.6 °F 85% 29.80 in 10.0 mi West 6.9 mph - N/A   Overcast
2:15 AM 30.4 °F 20.5 °F 25.7 °F 83% 29.82 in 10.0 mi West 12.7 mph - N/A   Overcast
2:35 AM 30.6 °F 22.4 °F 25.7 °F 82% 29.83 in 10.0 mi West 9.2 mph - N/A   Overcast
2:55 AM 30.4 °F 21.5 °F 25.9 °F 83% 29.84 in 10.0 mi West 10.4 mph - N/A   Overcast
3:15 AM 30.4 °F 22.2 °F 25.5 °F 82% 29.85 in 10.0 mi West 9.2 mph - N/A   Overcast
3:35 AM 30.2 °F 21.9 °F 25.7 °F 83% 29.85 in 10.0 mi WSW 9.2 mph - N/A   Overcast
3:55 AM 29.7 °F 22.0 °F 25.2 °F 83% 29.84 in 10.0 mi WSW 8.1 mph - N/A   Overcast
4:15 AM 29.3 °F 24.3 °F 25.2 °F 85% 29.85 in 10.0 mi WSW 4.6 mph - N/A   Overcast
4:35 AM 29.3 °F 22.3 °F 25.2 °F 85% 29.85 in 10.0 mi WSW 6.9 mph - N/A   Overcast
4:55 AM 29.1 °F 20.0 °F 25.3 °F 86% 29.86 in 10.0 mi SW 10.4 mph - N/A   Overcast
5:15 AM 28.8 °F 19.5 °F 25.2 °F 86% 29.86 in 10.0 mi WSW 10.4 mph - N/A   Overcast
5:35 AM 28.6 °F 21.5 °F 25.5 °F 88% 29.86 in 10.0 mi SW 6.9 mph - N/A   Overcast
5:55 AM 28.4 °F 18.5 °F 25.7 °F 90% 29.87 in 7.0 mi SW 11.5 mph - N/A   Overcast
6:15 AM 28.4 °F 18.0 °F 25.7 °F 90% 29.87 in 7.0 mi SW 12.7 mph 17.3 mph N/A   Overcast
6:35 AM 28.2 °F 19.5 °F 25.7 °F 90% 29.88 in 10.0 mi SW 9.2 mph - N/A   Overcast
6:55 AM 28.4 °F 19.1 °F 26.1 °F 91% 29.88 in 7.0 mi SW 10.4 mph - N/A   Overcast
7:15 AM 28.6 °F 18.7 °F 26.4 °F 92% 29.89 in 7.0 mi SSW 11.5 mph - N/A   Overcast
7:35 AM 28.4 °F 17.0 °F 26.2 °F 92% 29.90 in 7.0 mi SW 15.0 mph 18.4 mph N/A   Overcast
7:55 AM 28.6 °F 17.7 °F 26.2 °F 91% 29.91 in 7.0 mi SW 13.8 mph - N/A   Overcast
8:15 AM 28.4 °F 18.0 °F 26.1 °F 91% 29.91 in 5.0 mi SSW 12.7 mph - N/A   Overcast
8:35 AM 28.8 °F 20.2 °F 26.4 °F 91% 29.92 in 5.0 mi SSW 9.2 mph - N/A   Overcast
8:55 AM 28.9 °F 20.4 °F 26.6 °F 91% 29.92 in 7.0 mi SSW 9.2 mph 19.6 mph N/A   Overcast
9:15 AM 29.3 °F 19.6 °F 26.6 °F 90% 29.91 in 7.0 mi SSW 11.5 mph 18.4 mph N/A   Overcast
9:35 AM 29.3 °F 19.1 °F 26.6 °F 90% 29.93 in 7.0 mi South 12.7 mph 19.6 mph N/A   Overcast
9:55 AM 29.7 °F 19.6 °F 27.1 °F 90% 29.94 in 7.0 mi South 12.7 mph 19.6 mph N/A   Overcast
10:15 AM 29.7 °F 19.6 °F 27.1 °F 90% 29.93 in 7.0 mi SSW 12.7 mph 19.6 mph N/A   Overcast
10:35 AM 29.8 °F 20.9 °F 27.1 °F 90% 29.93 in 7.0 mi South 10.4 mph 18.4 mph N/A   Overcast
10:55 AM 30.2 °F 20.8 °F 27.1 °F 88% 29.91 in 10.0 mi South 11.5 mph 17.3 mph N/A   Overcast
11:15 AM 30.9 °F 21.2 °F 27.3 °F 86% 29.88 in 10.0 mi South 12.7 mph 19.6 mph N/A   Mostly Cloudy
11:35 AM 31.5 °F 21.8 °F 27.3 °F 85% 29.86 in 10.0 mi South 12.7 mph - N/A   Scattered Clouds
11:55 AM 31.5 °F 21.4 °F 27.5 °F 85% 29.85 in 10.0 mi South 13.8 mph 17.3 mph N/A   Scattered Clouds
12:15 PM 32.0 °F 21.6 °F 27.5 °F 83% 29.85 in 10.0 mi South 15.0 mph 20.7 mph N/A   Scattered Clouds
12:35 PM 32.0 °F 23.0 °F 27.3 °F 83% 29.83 in 10.0 mi South 11.5 mph 21.9 mph N/A   Clear
12:55 PM 32.2 °F 21.8 °F 27.5 °F 83% 29.81 in 10.0 mi South 15.0 mph 18.4 mph N/A   Clear
1:15 PM 32.5 °F 23.2 °F 27.5 °F 82% 29.80 in 10.0 mi South 12.7 mph 18.4 mph N/A   Clear
1:35 PM 32.9 °F 23.7 °F 27.9 °F 82% 29.79 in 10.0 mi South 12.7 mph 18.4 mph N/A   Clear
1:55 PM 33.8 °F 25.3 °F 27.5 °F 78% 29.79 in 10.0 mi South 11.5 mph 18.4 mph N/A   Clear
2:15 PM 34.3 °F 25.0 °F 27.5 °F 76% 29.78 in 10.0 mi South 13.8 mph 23.0 mph N/A   Clear
2:35 PM 34.7 °F 24.7 °F 27.3 °F 74% 29.77 in 10.0 mi South 16.1 mph 23.0 mph N/A   Clear
2:55 PM 35.2 °F 26.6 °F 27.5 °F 73% 29.77 in 10.0 mi South 12.7 mph 19.6 mph N/A   Clear
3:15 PM 35.6 °F 27.1 °F 27.5 °F 72% 29.76 in 10.0 mi South 12.7 mph - N/A   Clear
3:35 PM 35.6 °F 27.5 °F 27.5 °F 72% 29.75 in 10.0 mi South 11.5 mph 18.4 mph N/A   Clear
3:55 PM 35.8 °F 27.3 °F 27.7 °F 72% 29.74 in 10.0 mi SSE 12.7 mph 19.6 mph N/A   Clear
4:15 PM 36.0 °F 27.1 °F 28.0 °F 73% 29.74 in 10.0 mi South 13.8 mph 19.6 mph N/A   Clear
4:35 PM 36.1 °F 27.3 °F 28.2 °F 73% 29.74 in 10.0 mi South 13.8 mph 18.4 mph N/A   Clear
4:55 PM 36.1 °F 27.3 °F 28.4 °F 73% 29.73 in 10.0 mi South 13.8 mph 19.6 mph N/A   Clear
5:15 PM 36.9 °F 27.8 °F 28.2 °F 71% 29.72 in 10.0 mi South 15.0 mph 20.7 mph N/A   Clear
5:35 PM 37.6 °F 29.1 °F 27.9 °F 68% 29.72 in 10.0 mi South 13.8 mph 20.7 mph N/A   Clear
5:55 PM 37.9 °F 30.0 °F 27.9 °F 67% 29.70 in 10.0 mi South 12.7 mph 21.9 mph N/A   Clear
6:15 PM 38.1 °F 29.1 °F 28.0 °F 67% 29.71 in 10.0 mi South 16.1 mph 23.0 mph N/A   Clear
6:35 PM 38.3 °F 30.5 °F 28.0 °F 67% 29.70 in 10.0 mi South 12.7 mph 20.7 mph N/A   Clear
6:55 PM 38.7 °F 31.4 °F 28.0 °F 66% 29.71 in 10.0 mi South 11.5 mph 21.9 mph N/A   Clear
7:15 PM 37.8 °F 31.3 °F 28.0 °F 68% 29.72 in 10.0 mi South 9.2 mph - N/A   Clear
7:35 PM 37.8 °F 31.3 °F 28.0 °F 68% 29.72 in 10.0 mi South 9.2 mph 16.1 mph N/A   Clear
7:55 PM 38.3 °F 31.4 °F 28.2 °F 67% 29.72 in 10.0 mi South 10.4 mph - N/A   Clear
8:15 PM 38.1 °F 31.2 °F 28.2 °F 68% 29.72 in 10.0 mi South 10.4 mph - N/A   Clear
8:35 PM 38.5 °F 31.6 °F 28.0 °F 66% 29.72 in 10.0 mi South 10.4 mph 16.1 mph N/A   Clear
8:55 PM 38.7 °F 31.4 °F 28.0 °F 66% 29.72 in 10.0 mi South 11.5 mph - N/A   Clear
9:15 PM 38.5 °F 31.6 °F 28.4 °F 67% 29.71 in 10.0 mi South 10.4 mph 18.4 mph N/A   Clear
9:35 PM 38.5 °F 30.7 °F 28.4 °F 67% 29.71 in 10.0 mi South 12.7 mph 17.3 mph N/A   Clear
9:55 PM 38.3 °F 29.7 °F 28.9 °F 69% 29.71 in 10.0 mi South 15.0 mph 18.4 mph N/A   Clear
10:15 PM 38.3 °F 30.9 °F 29.3 °F 70% 29.70 in 10.0 mi South 11.5 mph 18.4 mph N/A   Clear
10:35 PM 38.3 °F 31.4 °F 29.3 °F 70% 29.69 in 10.0 mi South 10.4 mph 16.1 mph N/A   Clear
10:55 PM 38.3 °F 31.4 °F 29.5 °F 71% 29.69 in 10.0 mi South 10.4 mph - N/A   Clear
11:15 PM 38.7 °F 32.4 °F 29.7 °F 70% 29.68 in 10.0 mi South 9.2 mph 16.1 mph N/A   Clear
11:35 PM 39.2 °F 31.6 °F 29.7 °F 69% 29.68 in 10.0 mi SSW 12.7 mph 16.1 mph N/A   Clear
11:55 PM 39.6 °F 32.5 °F 29.7 °F 68% 29.67 in 10.0 mi SSW 11.5 mph - N/A   Clear